Location: Unspecified
(35.6961°N, 0.0000°E)
Time: 23:29:46
(UTC+00:00)

S-56A Canister/Altair - Pass Details

Date: 28 May 2019
Orbit: 633 x 2499 km, 38.9° (Epoch: 19 June)

Event Time Altitude Azimuth Distance (km) Brightness Sun altitude
Rises 23:01:44 0° 233° (SW) 2,925 - -31.3°
Reaches altitude 10° 23:03:54 10° 228° (SW) 2,070 - -31.4°
Maximum altitude 23:08:25 54° 151° (SSE) 918 - -31.6°
Exits shadow 23:13:52 12° 77° (ENE) 2,531 10.2 -31.8°
Drops below altitude 10° 23:14:19 10° 76° (ENE) 2,703 10.3 -31.9°
Sets 23:17:30 0° 72° (ENE) 3,926 11.2 -32.0°
